Location: Miss�
(46.9484°N, 0.1922°W)
Time: 19:02:39
(UTC+00:00)

COSMOS 2428 - Pass Details

Date: 02 March 2021
Orbit: 845 x 858 km, 70.9° (Epoch: 14 April)

Event Time Altitude Azimuth Distance (km) Brightness Sun altitude
Rises 19:28:40 0° 172° (S) 3,391 5.7 -17.9°
Reaches altitude 10° 19:31:24 10° 161° (SSE) 2,461 4.8 -18.4°
Enters shadow 19:32:41 16° 152° (SSE) 2,081 4.4 -18.6°
